Regional Weather Roundup
Issued by NWS

Home | Current Version | Previous Version | Graphics & Text | Print | Product List | Glossary On
Versions: 1 2 3 4 5 6 7 8 9 10 11 12 13 14 15 16 17 18 19 20 21 22 23 24 25 26 27 28 29 30 31 32 33 34 35 36 37 38 39 40 41 42 43 44 45 46 47 48 49 50
000
ASUS45 KTFX 041110
RWRMT
MONTANA REGIONAL WEATHER ROUNDUP
NATIONAL WEATHER SERVICE GREAT FALLS MT
500 AM MDT FRI SEP 04 2015

NOTE: "FAIR" INDICATES FEW OR NO CLOUDS BELOW 12000 FEET WITH NO
SIGNIFICANT WEATHER AND/OR OBSTRUCTIONS TO VISIBILITY.

MTZ001>007-043-041200-
WEST OF THE DIVIDE

CITY           SKY/WX    TMP DP  RH WIND       PRES   REMARKS
KALISPELL      RAIN      48  47  96 N3        29.97S FOG
MISSOULA       CLOUDY    41  41 100 MISG      29.97F FOG
BUTTE          LGT RAIN  44  41  89 NE3       29.99R
MULLAN PASS    CLEAR     38  32  79 CALM      29.98S
DEER LODGE       N/A     45  43  93 NW3       30.02R
EUREKA           N/A     46  45  93 NW3       30.01S
HAMILTON         N/A     46  46 100 CALM      29.96R
LIBBY            N/A     46  41  81 S3        29.99R
PLAINS           N/A     45  41  86 CALM      29.98S
$$

MTZ008-052>055-041200-
SOUTHWEST MONTANA

CITY           SKY/WX    TMP DP  RH WIND       PRES   REMARKS
BOZEMAN        PTCLDY    49  45  86 SW5       29.93F
DILLON         MOCLDY    45  41  86 E6        29.94S
W YELLOWSTONE  MOCLDY    39  39 100 CALM      29.96S FOG
$$

MTZ009-010-012-014-046-048-049-054-041200-
EAST SLOPES AND CENTRAL MONTANA

CITY           SKY/WX    TMP DP  RH WIND       PRES   REMARKS
CUT BANK       CLOUDY    48  46  93 CALM      29.98S
GREAT FALLS    CLOUDY    49  47  93 E12       29.94S
MALMSTROM AFB  CLOUDY    49  48  96 E12       29.94F
HELENA         CLOUDY    50  47  89 NW9       29.94R
CONRAD           N/A     50  50 100 CALM      30.01R
$$

MTZ011-013-016-021-045-047-050-051-041200-
NORTH CENTRAL MONTANA

CITY           SKY/WX    TMP DP  RH WIND       PRES   REMARKS
HAVRE          LGT RAIN  51  48  89 SE7       30.00F
LEWISTOWN      CLOUDY    49  46  90 NW6       29.99F
N BAR RANCH      N/A     46  43  87 NW9G17    29.99R
CHINOOK          N/A     52  46  82 CALM      30.01R
FORT BENTON      N/A     52  48  87 NE7       29.97F
$$

MTZ017>020-022>027-061-062-041200-
NORTHEAST MONTANA

CITY           SKY/WX    TMP DP  RH WIND       PRES   REMARKS
GLASGOW        MOCLDY    57  38  48 NW12      29.92R
JORDAN           N/A     56  42  59 NW15      29.88F
SIDNEY         CLOUDY    63  46  55 N14         N/A
WOLF POINT     MOCLDY    59  45  59 N10       29.83R
MALTA            N/A     50  41  71 CALM      29.97R
PLENTYWOOD       N/A     55  48  76 N23G29    29.79F
POPLAR           N/A     57  46  67 N12       29.80R
$$

MTZ028>42-056>058-041200-
SOUTHCENTRAL AND SOUTHEAST MONTANA

CITY           SKY/WX    TMP DP  RH WIND       PRES   REMARKS
BAKER          CLOUDY    65  60  84 E15       29.77F
BILLINGS       MOCLDY    52  46  80 W8        29.93R
LIVINGSTON     CLOUDY    51  45  79 NW8       29.94F
MILES CITY     CLOUDY    60  47  61 NW16      29.85S
EKALAKA          N/A     64  57  78 SE2       29.83R
FORSYTH          N/A     59  41  51 W5        29.85R
LAUREL           N/A     53  45  74 NW1       29.92S
$$

REGIONAL REPORTS...DAKOTAS

CITY           SKY/WX    TMP DP  RH WIND       PRES   REMARKS
WILLISTON      LGT RAIN  61  48  62 N17G24    29.79F
MINOT          CLOUDY    69  63  81 NW12      29.75S
DICKINSON      CLOUDY    65  57  75 NE18      29.75R
CROSBY           N/A     59  46  63 N10       29.84F
BISMARCK         N/A     71  70  96 CALM      29.71R
GRAND FORKS    CLOUDY    73  71  93 SE9       29.77S
FARGO          PTCLDY    74  71  91 SE7       29.76F
BUFFALO SD       N/A     64  59  83 NE3       29.74R
RAPID CITY     MOCLDY    64  54  69 N6        29.78S
$$

REGIONAL REPORTS...WYOMING/IDAHO/WASHINGTON

CITY           SKY/WX    TMP DP  RH WIND       PRES   REMARKS
GILLETTE       CLEAR     57  41  55 VRB3      29.87R
SHERIDAN       PTCLDY    58  44  60 NW15      29.90R
BUFFALO WY     PTCLDY    58  44  60 N14G28    29.93R
CODY           PTCLDY    50  45  81 NE8       29.93R
YELLOWSTONE LA   N/A     40  39  97 W3        30.03F
IDAHO FALLS    MOCLDY    53  40  61 S15       29.87R
SALMON         CLOUDY    48  46  93 S3        29.94S
BOISE          CLOUDY    53  41  63 W5        29.84F
SPOKANE        PTCLDY    47  36  65 CALM      29.95S
$$

REGIONAL REPORTS...ALBERTA

CITY           SKY/WX    TMP DP  RH WIND       PRES   REMARKS
EDMONTON       CLOUDY    43  37  81 NW5       30.12R
CALGARY        MOCLDY    39  36  87 N14       30.05R WCI  31
LETHBRIDGE     CLOUDY    43  41  93 W8        29.98R
MEDICINE HAT   LGT RAIN  50  48  93 E6        29.98F
WATERTON GATE    N/A     43  39  87 NE9         N/A
CARDSTON         N/A     41  41 100 N7          N/A
MILK RIVER       N/A     48  46  93 S7          N/A
ONEFOUR          N/A     48  48 100 E12         N/A
$$

REGIONAL REPORTS...SASKATCHEWAN

CITY           SKY/WX    TMP DP  RH WIND       PRES   REMARKS
SWIFT CURRENT  CLOUDY    48  46  93 NE7       29.98S
REGINA         CLOUDY    52  48  87 NW12      29.93F
SASKATOON      CLOUDY    50  45  81 NE6       30.03S
CYPRESS HILLS    N/A     46  43  87 E2          N/A
VAL MARIE        N/A     48  43  81 N12         N/A
ROCKGLEN         N/A     48  45  87 N16G23      N/A
$$


USA.gov is the U.S. government's official web portal to all federal, state and local government web resources and services.